Wind_Speed
18 22 27 32 36 36 32 30 30 21 23 21 25 25 29 32 34 40 44 48 51 56 63 69 75 79 82 85 85 85 83 83 83 86 85 80 80 78 76 75 70 61 56 54
20 23 29 35 38 36 33 30 26 27 22 22 27 28 31 36 41 44 50 53 58 64 71 77 81 84 87 89 86 87 87 86 87 87 86 79 78 75 72 67 60 55 54 51
24 27 29 37 38 37 34 33 31 26 24 27 31 33 39 42 47 53 56 60 66 71 76 79 83 85 85 87 85 85 87 89 88 89 81 74 72 69 64 60 57 53 48 47
30 32 32 37 39 39 33 31 29 31 30 35 38 41 45 48 51 55 60 65 70 75 79 82 83 86 85 84 86 88 88 88 82 83 77 72 73 66 61 56 51 45 44 48
35 37 37 37 42 34 36 28 31 28 32 36 40 42 47 53 58 62 66 70 75 78 81 82 87 89 87 87 87 86 84 80 70 60 64 68 67 66 59 47 41 41 47 49
37 41 42 44 47 44 41 36 35 33 35 38 42 46 49 53 58 63 69 73 76 80 85 87 86 86 87 87 87 84 82 74 68 65 65 65 59 54 50 39 40 42 46 48
40 42 43 46 48 47 45 40 40 39 41 44 47 51 55 60 64 70 75 78 81 84 84 83 84 86 88 88 84 78 73 70 68 65 50 46 49 43 36 37 39 43 43 47
42 43 45 49 49 50 45 40 41 42 46 49 53 57 61 65 71 74 77 80 82 82 83 84 87 90 91 86 80 74 70 67 61 52 47 43 33 26 30 32 38 40 42 45
44 43 46 51 51 51 46 44 47 49 52 54 59 62 66 71 74 76 79 81 80 82 84 86 89 91 92 85 77 73 66 57 53 47 36 25 23 25 28 35 38 39 43 42
48 44 47 51 50 50 47 47 50 52 55 59 62 66 70 73 74 78 80 80 81 83 86 89 91 88 80 76 71 61 55 52 38 27 18 22 21 24 31 35 37 39 42 40
45 46 52 54 51 49 49 50 52 55 59 62 64 69 72 74 77 78 79 82 84 86 89 89 85 78 73 65 55 52 47 32 24 17 22 18 21 26 33 35 36 39 40 38
47 51 52 52 49 49 50 52 55 59 62 63 68 71 73 74 77 79 82 82 84 87 87 83 77 68 61 51 48 41 30 22 19 23 21 18 24 30 34 34 36 38 38 36
50 53 53 50 48 49 53 56 60 63 64 68 70 72 74 76 77 78 79 81 85 86 82 76 68 59 51 44 39 28 23 22 23 24 20 21 27 31 33 33 36 38 35 32
54 53 50 48 50 53 56 60 62 64 67 70 72 74 76 76 77 78 79 82 82 78 74 68 60 51 42 38 30 22 23 23 25 24 22 25 29 32 33 33 37 40 34 30
52 50 49 52 55 58 61 62 64 67 69 71 73 74 75 76 76 76 78 80 77 71 66 60 51 41 38 33 25 22 24 25 26 25 24 26 29 33 32 34 38 40 35 29
51 51 53 55 59 62 64 67 68 69 70 71 72 73 75 75 75 76 77 74 68 62 58 51 45 38 34 30 24 22 24 26 26 25 25 27 29 32 31 33 37 39 34 29
55 58 60 63 65 67 68 70 68 68 68 70 71 72 72 72 74 74 70 64 60 55 52 46 40 35 32 28 23 23 24 26 26 24 26 28 30 31 30 33 36 39 36 29
59 62 65 67 69 68 68 67 66 66 67 69 69 70 71 73 72 68 62 57 53 49 46 42 37 34 30 27 24 24 26 27 26 25 26 29 30 29 29 33 36 37 37 31
62 64 66 68 67 66 65 65 65 66 68 69 67 68 69 69 66 61 56 52 51 45 43 38 34 31 28 25 24 25 26 27 25 25 27 29 29 27 29 33 35 36 37 34
68 68 68 66 64 63 63 64 66 67 68 67 67 68 67 64 59 55 52 49 49 45 41 37 34 30 28 26 25 25 26 26 25 26 27 28 26 26 29 31 33 35 37 37
68 66 64 62 61 62 63 65 66 66 66 66 67 66 64 58 55 53 51 48 46 43 39 35 33 30 27 27 27 27 27 26 26 27 27 26 25 26 28 29 32 35 36 39
64 62 60 59 60 61 63 65 65 64 64 64 65 63 60 56 53 52 50 49 44 40 37 33 31 29 28 28 28 27 26 27 27 26 26 25 24 26 27 29 30 33 36 39
59 58 60 61 62 63 63 63 64 64 63 63 61 59 57 55 52 50 47 45 41 38 35 32 29 28 26 26 26 27 27 26 25 26 26 25 26 26 26 28 30 33 35 38
57 59 60 61 62 61 61 62 63 61 59 57 56 54 52 50 47 46 43 40 37 35 33 31 29 29 28 27 25 24 26 25 25 27 27 27 27 27 28 28 31 34 36 37
58 59 60 60 60 60 60 59 59 58 57 53 50 47 45 44 44 40 38 35 34 31 31 30 30 30 30 28 27 27 25 25 26 29 29 29 30 29 30 31 32 34 36 37
56 57 56 56 57 57 57 58 57 54 49 45 42 40 40 38 38 35 34 32 28 27 29 29 29 30 30 29 28 27 27 27 29 30 30 31 32 32 32 33 34 35 36 38
53 54 55 55 55 55 56 54 51 47 44 41 38 37 37 36 35 32 31 30 29 30 31 31 32 32 32 32 31 29 29 30 31 31 32 33 34 34 34 35 35 37 38 39
Wind_Direction
315 324 330 333 334 328 323 321 317 313 309 305 303 303 300 313 306 310 311 314 314 315 316 317 315 315 314 313 315 316 316 315 315 314 315 315 313 314 316 315 315 314 313 312
307 316 324 330 333 328 321 316 312 307 305 296 299 304 307 308 312 314 316 315 315 317 318 317 315 314 316 317 316 317 316 315 314 314 314 315 316 316 315 316 315 314 313 311
309 312 317 325 334 331 322 316 309 303 301 298 303 312 313 314 317 317 318 318 319 318 316 315 314 316 316 316 316 315 315 316 315 315 317 315 315 315 316 315 315 314 313 312
309 312 316 323 333 331 321 317 308 306 305 309 316 317 312 317 317 317 317 318 317 315 314 315 316 314 315 316 317 317 316 315 316 317 315 317 315 315 316 317 315 314 316 316
308 311 314 314 319 328 322 313 309 309 309 309 311 313 314 317 319 318 317 315 314 314 315 313 313 317 318 318 318 316 314 316 317 313 303 313 312 313 318 316 316 320 319 319
305 307 312 315 317 323 322 311 308 307 307 308 311 312 313 314 314 314 314 314 314 314 316 317 317 317 317 316 316 314 315 314 312 310 310 308 308 311 316 318 323 322 320 321
300 303 307 310 313 318 316 313 303 304 307 310 313 314 315 316 318 318 318 317 317 316 316 317 316 316 316 316 315 315 314 312 311 309 306 299 306 303 315 321 318 321 322 325
297 301 307 308 311 316 315 305 304 308 311 312 314 315 317 318 319 318 317 315 315 315 316 317 317 316 316 316 317 317 316 314 312 312 310 310 312 314 315 319 321 323 325 328
299 304 304 306 312 315 310 306 308 311 314 315 315 317 318 318 318 315 314 314 315 317 317 317 317 317 319 320 320 318 317 317 316 312 308 311 317 321 324 324 325 327 330 331
299 303 302 306 312 307 305 306 310 313 313 313 314 316 316 315 314 314 314 315 316 317 318 319 319 320 320 319 319 319 320 320 321 322 319 320 319 329 328 327 329 331 333 333
297 298 301 307 309 305 306 310 312 311 311 312 314 315 314 314 313 313 314 316 317 319 320 320 320 320 319 320 320 322 323 324 328 329 326 323 329 329 329 331 333 335 335 336
296 298 303 303 303 304 306 308 309 310 311 312 313 313 313 313 313 314 316 318 318 320 321 321 321 321 322 322 323 325 329 329 331 328 325 325 328 330 334 334 335 337 337 338
297 300 299 300 302 303 305 305 308 310 312 313 313 313 312 313 314 315 316 318 320 322 322 321 322 322 323 324 326 328 332 329 328 328 323 324 326 330 334 335 337 338 338 338
297 297 296 300 303 303 303 305 309 312 312 312 313 312 312 312 314 316 317 320 322 322 322 323 323 322 322 324 323 324 324 328 330 328 324 323 327 331 334 338 340 339 337 337
296 294 297 301 301 303 304 308 311 311 311 311 311 311 311 313 315 317 319 321 322 322 323 324 324 321 321 322 316 319 322 327 329 325 323 324 328 332 335 338 340 341 338 337
289 292 299 303 304 305 308 311 311 310 309 309 309 310 312 314 317 319 321 322 322 324 325 325 322 319 318 317 310 313 320 325 326 321 320 323 327 331 334 337 339 342 341 335
293 296 300 303 306 307 309 308 307 306 306 308 310 312 313 315 318 320 321 321 324 325 325 324 322 319 316 312 305 309 315 326 325 321 320 322 325 329 333 336 339 342 343 335
295 298 300 302 305 305 304 303 303 305 307 309 311 312 314 316 318 319 320 321 325 324 323 323 320 319 314 309 306 306 310 317 320 318 321 321 324 328 332 336 339 342 343 338
298 298 299 301 301 301 301 302 305 307 308 309 311 312 314 316 318 319 319 323 324 323 322 319 317 316 309 307 307 309 310 314 316 316 319 321 323 327 331 335 338 342 345 341
296 297 297 298 298 299 301 304 306 307 307 309 311 313 315 316 316 316 319 321 322 322 322 318 315 310 306 304 307 309 309 311 312 315 318 320 322 324 330 333 338 343 347 346
293 294 295 295 298 302 305 305 305 306 307 310 312 313 313 313 314 315 316 318 319 321 320 320 316 306 302 301 303 305 308 311 313 316 316 318 319 321 327 331 338 345 346 350
292 292 295 299 303 304 303 303 305 307 309 310 310 310 311 311 311 312 314 316 317 318 317 318 317 314 305 303 303 304 306 308 313 315 316 315 315 320 324 330 337 343 348 350
293 298 302 303 303 304 304 305 306 308 309 309 309 309 309 310 311 311 311 311 314 314 314 314 315 317 314 307 301 301 304 307 310 313 313 311 313 317 320 326 335 341 342 345
303 303 303 304 304 303 304 305 306 308 308 308 307 307 308 309 312 312 313 313 312 311 312 311 311 313 314 314 310 306 305 305 308 312 311 308 312 313 317 324 330 334 336 340
302 303 302 302 304 305 305 306 307 308 308 307 308 309 310 311 313 315 315 312 310 310 314 313 313 311 309 307 307 307 305 302 306 309 306 304 309 310 313 320 323 327 330 334
300 301 303 305 306 307 309 309 309 309 308 306 307 308 310 312 314 317 317 315 312 315 318 317 316 314 313 308 302 301 303 303 304 305 303 302 305 307 310 316 317 321 325 328
301 302 303 304 307 309 311 312 310 309 305 303 305 307 309 312 314 310 315 317 318 318 318 316 314 313 312 311 308 303 298 298 299 301 301 301 303 304 307 311 314 317 321 322
Height
5785 5782 5779 5776 5773 5768 5762 5759 5754 5754 5749 5746 5742 5740 5736 5734 5730 5725 5719 5712 5706 5698 5690 5681 5670 5658 5645 5632 5618 5604 5592 5581 5570 5556 5546 5532 5521 5510 5499 5488 5479 5470 5461 5452
5781 5778 5774 5770 5767 5761 5756 5752 5748 5745 5744 5739 5735 5732 5730 5726 5722 5716 5710 5703 5694 5685 5674 5663 5651 5638 5624 5610 5598 5584 5572 5561 5550 5538 5528 5514 5501 5492 5483 5474 5465 5456 5447 5439
5776 5773 5770 5766 5761 5755 5750 5744 5741 5737 5735 5731 5727 5726 5721 5716 5711 5703 5695 5688 5679 5669 5658 5646 5634 5619 5606 5594 5580 5569 5555 5540 5525 5516 5511 5496 5487 5478 5469 5461 5452 5443 5435 5428
5768 5766 5765 5758 5754 5748 5744 5739 5734 5731 5727 5722 5720 5717 5710 5706 5700 5693 5684 5675 5666 5655 5644 5631 5618 5605 5593 5578 5564 5549 5536 5523 5512 5493 5488 5483 5470 5464 5456 5447 5438 5431 5424 5417
5760 5757 5756 5751 5747 5746 5738 5736 5728 5725 5721 5717 5713 5708 5702 5693 5685 5678 5671 5662 5651 5638 5626 5615 5601 5585 5573 5561 5547 5532 5519 5509 5497 5486 5475 5469 5456 5446 5442 5435 5428 5422 5414 5406
5753 5748 5745 5741 5735 5733 5730 5727 5723 5720 5715 5709 5704 5698 5692 5685 5678 5669 5658 5647 5636 5623 5607 5593 5580 5568 5556 5546 5533 5516 5502 5492 5483 5473 5463 5452 5443 5435 5429 5424 5419 5414 5406 5397
5744 5741 5740 5733 5729 5725 5722 5720 5712 5708 5703 5698 5692 5686 5679 5670 5661 5652 5641 5629 5616 5604 5591 5578 5565 5553 5541 5528 5515 5503 5488 5475 5465 5457 5449 5439 5433 5427 5422 5417 5412 5406 5399 5390
5737 5733 5730 5723 5719 5717 5713 5705 5701 5697 5692 5686 5680 5672 5664 5655 5646 5635 5625 5613 5602 5589 5577 5564 5550 5535 5522 5510 5495 5482 5472 5460 5450 5440 5434 5428 5423 5419 5416 5412 5406 5399 5391 5382
5730 5726 5718 5710 5707 5705 5699 5694 5689 5685 5679 5673 5666 5658 5650 5640 5630 5620 5609 5598 5586 5574 5561 5549 5533 5517 5501 5486 5475 5465 5454 5443 5435 5428 5422 5419 5416 5413 5410 5405 5399 5392 5383 5375
5717 5717 5708 5703 5701 5694 5690 5685 5680 5674 5668 5661 5654 5645 5636 5626 5615 5605 5593 5581 5570 5558 5545 5530 5513 5496 5483 5471 5460 5448 5439 5431 5423 5418 5416 5414 5411 5409 5405 5399 5392 5385 5377 5368
5709 5704 5698 5692 5689 5684 5679 5675 5669 5663 5656 5648 5640 5631 5622 5611 5599 5588 5577 5565 5552 5539 5526 5512 5497 5483 5469 5457 5447 5439 5430 5423 5418 5415 5413 5410 5408 5405 5400 5393 5386 5379 5370 5362
5696 5692 5689 5682 5678 5674 5669 5664 5658 5651 5643 5634 5625 5616 5605 5595 5583 5571 5560 5548 5537 5524 5509 5495 5483 5470 5458 5448 5439 5430 5425 5420 5416 5413 5410 5407 5405 5401 5395 5388 5381 5374 5365 5358
5685 5680 5676 5671 5667 5662 5657 5651 5644 5636 5627 5619 5610 5599 5589 5579 5567 5556 5545 5533 5520 5506 5493 5479 5467 5457 5448 5440 5433 5427 5422 5418 5414 5410 5407 5404 5401 5396 5391 5384 5377 5370 5362 5355
5673 5669 5665 5660 5655 5650 5644 5637 5630 5622 5612 5602 5594 5584 5574 5564 5554 5542 5529 5518 5505 5490 5478 5467 5455 5446 5439 5433 5428 5423 5419 5415 5410 5406 5403 5400 5396 5391 5385 5379 5372 5365 5358 5352
5660 5656 5653 5649 5642 5636 5630 5623 5615 5606 5597 5588 5578 5568 5558 5550 5539 5527 5514 5502 5491 5477 5465 5454 5445 5437 5431 5426 5422 5419 5415 5411 5406 5402 5399 5396 5392 5386 5380 5374 5368 5360 5352 5346
5647 5644 5640 5634 5628 5621 5614 5607 5598 5590 5581 5573 5564 5553 5543 5532 5522 5511 5498 5486 5474 5465 5454 5444 5436 5430 5425 5420 5417 5414 5410 5406 5402 5398 5395 5391 5387 5382 5376 5370 5364 5356 5349 5343
5635 5630 5625 5618 5612 5606 5598 5590 5583 5575 5567 5559 5549 5539 5528 5519 5509 5496 5485 5474 5463 5453 5444 5436 5429 5423 5419 5415 5412 5408 5405 5401 5397 5393 5390 5386 5382 5377 5372 5366 5360 5352 5346 5339
5621 5616 5609 5603 5596 5590 5582 5575 5568 5560 5552 5543 5534 5524 5515 5503 5494 5483 5474 5464 5455 5446 5436 5429 5423 5418 5413 5409 5406 5403 5399 5396 5392 5388 5385 5381 5377 5372 5367 5362 5356 5349 5342 5336
5605 5599 5592 5587 5581 5574 5566 5559 5552 5544 5535 5528 5519 5510 5500 5489 5479 5469 5461 5452 5444 5437 5431 5423 5417 5412 5408 5404 5400 5397 5393 5390 5386 5383 5379 5376 5371 5367 5363 5357 5352 5345 5338 5331
5588 5583 5577 5570 5564 5557 5551 5543 5536 5528 5519 5512 5504 5495 5487 5476 5467 5459 5450 5443 5434 5428 5421 5415 5410 5405 5401 5398 5394 5391 5387 5384 5380 5377 5373 5370 5366 5362 5358 5353 5347 5341 5335 5328
5573 5568 5562 5555 5549 5542 5535 5528 5521 5512 5504 5495 5487 5479 5471 5463 5455 5447 5439 5434 5426 5419 5412 5408 5403 5398 5395 5391 5388 5384 5380 5377 5374 5371 5367 5364 5360 5357 5353 5348 5343 5337 5331 5324
5558 5552 5546 5540 5534 5528 5520 5512 5505 5498 5489 5480 5471 5463 5456 5450 5443 5437 5428 5421 5417 5411 5405 5400 5396 5391 5387 5383 5380 5377 5374 5371 5368 5364 5361 5358 5355 5351 5347 5343 5338 5333 5327 5321
5542 5537 5531 5525 5519 5513 5505 5496 5490 5482 5474 5465 5456 5449 5442 5436 5430 5424 5420 5412 5406 5402 5397 5393 5389 5384 5380 5376 5373 5370 5367 5364 5361 5358 5355 5352 5349 5345 5342 5338 5333 5328 5323 5317
5525 5519 5514 5507 5501 5495 5489 5482 5474 5467 5459 5454 5445 5437 5430 5425 5421 5411 5406 5402 5397 5393 5389 5385 5381 5377 5373 5370 5366 5363 5360 5357 5355 5352 5349 5346 5343 5339 5336 5331 5327 5322 5317 5312
5509 5504 5498 5492 5485 5479 5472 5465 5459 5451 5445 5439 5432 5425 5419 5413 5408 5404 5398 5393 5389 5386 5381 5377 5373 5369 5366 5362 5359 5356 5353 5350 5348 5345 5342 5339 5336 5332 5328 5325 5320 5316 5311 5306
5494 5489 5483 5476 5469 5462 5455 5449 5443 5437 5431 5427 5422 5416 5411 5405 5400 5395 5390 5385 5382 5378 5375 5370 5366 5362 5358 5355 5351 5348 5345 5343 5340 5337 5334 5331 5328 5324 5321 5317 5313 5309 5304 5299
5479 5473 5467 5462 5456 5448 5442 5436 5430 5425 5420 5415 5412 5407 5402 5397 5392 5388 5384 5380 5376 5372 5368 5363 5359 5355 5351 5347 5343 5340 5337 5334 5331 5329 5326 5323 5320 5316 5312 5309 5305 5300 5296 5292